Time,TemperatureF,DewpointF,PressureIn,WindDirection,WindDirectionDegrees,WindSpeedMPH,WindSpeedGustMPH,Humidity,HourlyPrecipIn,Conditions,Clouds,dailyrainin,SoftwareType,DateUTC
2013-04-26 00:03:00,75.0,64.0,28.12,NE,52,21.0,26.0,69,0.00,,,0.00,,2013-04-26 04:03:00,
2013-04-26 00:12:00,75.0,64.0,28.12,NE,52,21.0,26.0,69,0.00,,,0.00,,2013-04-26 04:12:00,
2013-04-26 00:23:00,75.0,64.0,28.12,NE,53,17.0,22.0,68,0.00,,,0.00,,2013-04-26 04:23:00,
2013-04-26 00:32:00,75.0,64.0,28.12,NE,48,16.0,21.0,69,0.00,,,0.00,,2013-04-26 04:32:00,
2013-04-26 00:43:00,75.0,64.0,28.12,NE,48,16.0,21.0,69,0.00,,,0.00,,2013-04-26 04:43:00,
2013-04-26 00:53:00,75.0,64.0,28.12,NE,51,16.0,24.0,69,0.00,,,0.00,,2013-04-26 04:53:00,
2013-04-26 01:02:00,75.0,65.0,28.12,NE,55,17.0,21.0,70,0.00,,,0.00,,2013-04-26 05:02:00,
2013-04-26 01:13:00,75.0,65.0,28.12,NE,55,17.0,21.0,70,0.00,,,0.00,,2013-04-26 05:13:00,
2013-04-26 01:22:00,75.0,64.0,28.12,NE,54,15.0,20.0,69,0.00,,,0.00,,2013-04-26 05:22:00,
2013-04-26 01:32:00,75.0,64.0,28.12,ENE,58,14.0,20.0,68,0.00,,,0.00,,2013-04-26 05:32:00,
2013-04-26 01:42:00,75.0,64.0,28.12,ENE,58,14.0,20.0,68,0.00,,,0.00,,2013-04-26 05:42:00,
2013-04-26 01:52:00,75.0,65.0,26.41,NE,56,15.0,20.0,70,0.00,,,0.00,,2013-04-26 05:52:00,
2013-04-26 02:02:00,75.0,65.0,26.41,NE,52,15.0,19.0,70,0.00,,,0.00,,2013-04-26 06:02:00,
2013-04-26 02:11:00,75.0,65.0,26.41,NE,52,15.0,19.0,70,0.00,,,0.00,,2013-04-26 06:11:00,
2013-04-26 02:21:00,74.0,63.0,26.41,NE,49,17.0,21.0,69,0.00,,,0.00,,2013-04-26 06:21:00,
2013-04-26 02:32:00,74.0,63.0,26.41,NE,51,15.0,20.0,68,0.00,,,0.00,,2013-04-26 06:32:00,
2013-04-26 02:42:00,74.0,63.0,26.41,NE,51,15.0,20.0,68,0.00,,,0.00,,2013-04-26 06:42:00,
2013-04-26 02:52:00,74.0,64.0,26.41,ENE,57,15.0,21.0,70,0.00,,,0.00,,2013-04-26 06:52:00,
2013-04-26 03:01:00,74.0,64.0,26.41,NE,50,14.0,21.0,70,0.00,,,0.00,,2013-04-26 07:01:00,
2013-04-26 03:11:00,74.0,64.0,26.41,NE,50,14.0,21.0,70,0.00,,,0.00,,2013-04-26 07:11:00,
2013-04-26 03:22:00,74.0,64.0,26.41,NE,47,19.0,23.0,71,0.00,,,0.00,,2013-04-26 07:22:00,
2013-04-26 03:31:00,74.0,64.0,26.41,NE,49,15.0,21.0,71,0.00,,,0.00,,2013-04-26 07:31:00,
2013-04-26 03:42:00,74.0,64.0,26.41,NE,49,15.0,21.0,71,0.00,,,0.00,,2013-04-26 07:42:00,
2013-04-26 03:52:00,74.0,64.0,26.41,NE,35,15.0,20.0,70,0.00,,,0.00,,2013-04-26 07:52:00,
2013-04-26 04:02:00,74.0,64.0,26.41,NE,44,16.0,20.0,71,0.00,,,0.00,,2013-04-26 08:02:00,
2013-04-26 04:11:00,74.0,64.0,26.41,NE,44,16.0,20.0,71,0.00,,,0.00,,2013-04-26 08:11:00,
2013-04-26 04:22:00,74.0,64.0,26.41,NE,48,15.0,23.0,70,0.00,,,0.00,,2013-04-26 08:22:00,
2013-04-26 04:32:00,74.0,64.0,26.41,ENE,67,14.0,21.0,70,0.00,,,0.00,,2013-04-26 08:32:00,
2013-04-26 04:42:00,74.0,64.0,26.41,ENE,67,14.0,21.0,70,0.00,,,0.00,,2013-04-26 08:42:00,
2013-04-26 04:52:00,74.0,64.0,26.41,ENE,63,19.0,22.0,70,0.00,,,0.00,,2013-04-26 08:52:00,
2013-04-26 05:01:00,74.0,64.0,26.41,ENE,67,15.0,21.0,70,0.00,,,0.00,,2013-04-26 09:01:00,
2013-04-26 05:11:00,74.0,64.0,26.41,ENE,67,15.0,21.0,70,0.00,,,0.00,,2013-04-26 09:11:00,
2013-04-26 05:22:00,74.0,64.0,26.41,ENE,65,14.0,19.0,72,0.00,,,0.00,,2013-04-26 09:22:00,
2013-04-26 05:33:00,74.0,64.0,26.41,ENE,60,12.0,20.0,71,0.00,,,0.00,,2013-04-26 09:33:00,
2013-04-26 05:43:00,74.0,64.0,26.41,ENE,60,12.0,20.0,71,0.00,,,0.00,,2013-04-26 09:43:00,
2013-04-26 05:53:00,74.0,64.0,26.41,ENE,71,16.0,20.0,70,0.00,,,0.00,,2013-04-26 09:53:00,
2013-04-26 06:03:00,74.0,64.0,26.41,ENE,66,14.0,19.0,70,0.00,,,0.00,,2013-04-26 10:03:00,
2013-04-26 06:12:00,74.0,64.0,26.41,ENE,66,14.0,19.0,70,0.00,,,0.00,,2013-04-26 10:12:00,
2013-04-26 06:23:00,74.0,64.0,26.41,NE,47,13.0,16.0,71,0.00,,,0.00,,2013-04-26 10:23:00,
2013-04-26 06:33:00,74.0,64.0,26.41,NE,52,15.0,18.0,71,0.00,,,0.00,,2013-04-26 10:33:00,
2013-04-26 06:42:00,74.0,64.0,26.41,NE,52,15.0,18.0,71,0.00,,,0.00,,2013-04-26 10:42:00,
2013-04-26 06:52:00,74.0,64.0,30.09,ENE,59,13.0,17.0,72,0.00,,,0.00,,2013-04-26 10:52:00,
2013-04-26 07:02:00,74.0,64.0,28.71,ENE,61,10.0,15.0,72,0.00,,,0.00,,2013-04-26 11:02:00,
2013-04-26 07:11:00,74.0,64.0,28.71,ENE,61,10.0,15.0,72,0.00,,,0.00,,2013-04-26 11:11:00,
2013-04-26 07:22:00,75.0,66.0,28.71,NE,42,9.0,13.0,73,0.00,,,0.00,,2013-04-26 11:22:00,
2013-04-26 07:32:00,75.0,66.0,30.12,NE,51,11.0,17.0,73,0.00,,,0.00,,2013-04-26 11:32:00,
2013-04-26 07:42:00,75.0,66.0,30.12,NE,51,11.0,17.0,73,0.00,,,0.00,,2013-04-26 11:42:00,
2013-04-26 07:52:00,75.0,65.0,30.13,NE,53,12.0,17.0,72,0.00,,,0.00,,2013-04-26 11:52:00,
2013-04-26 08:01:00,75.0,65.0,30.13,NE,52,14.0,17.0,72,0.00,,,0.00,,2013-04-26 12:01:00,
2013-04-26 08:11:00,75.0,65.0,30.13,NE,52,14.0,17.0,72,0.00,,,0.00,,2013-04-26 12:11:00,
2013-04-26 08:21:00,76.0,65.0,30.13,NE,36,12.0,17.0,69,0.00,,,0.00,,2013-04-26 12:21:00,
2013-04-26 08:32:00,76.0,65.0,26.42,NE,53,12.0,16.0,69,0.00,,,0.00,,2013-04-26 12:32:00,
2013-04-26 08:42:00,76.0,65.0,26.42,NE,53,12.0,16.0,69,0.00,,,0.00,,2013-04-26 12:42:00,
2013-04-26 08:52:00,77.0,65.0,30.14,NE,48,11.0,14.0,67,0.00,,,0.00,,2013-04-26 12:52:00,
2013-04-26 09:01:00,77.0,64.0,30.14,ENE,57,12.0,18.0,65,0.00,,,0.00,,2013-04-26 13:01:00,
2013-04-26 09:11:00,77.0,64.0,30.14,ENE,57,12.0,18.0,65,0.00,,,0.00,,2013-04-26 13:11:00,
2013-04-26 09:22:00,78.0,65.0,30.15,NNE,25,10.0,16.0,64,0.00,,,0.00,,2013-04-26 13:22:00,
2013-04-26 09:32:00,78.0,65.0,30.16,NE,50,12.0,16.0,65,0.00,,,0.00,,2013-04-26 13:32:00,
2013-04-26 09:42:00,78.0,65.0,30.16,NE,50,12.0,16.0,65,0.00,,,0.00,,2013-04-26 13:42:00,
2013-04-26 09:52:00,78.0,65.0,30.17,ENE,63,12.0,17.0,64,0.00,,,0.00,,2013-04-26 13:52:00,
2013-04-26 10:01:00,78.0,65.0,30.17,NNE,31,11.0,15.0,64,0.00,,,0.00,,2013-04-26 14:01:00,
2013-04-26 10:11:00,78.0,65.0,30.17,NNE,31,11.0,15.0,64,0.00,,,0.00,,2013-04-26 14:11:00,
2013-04-26 10:21:00,79.0,66.0,30.17,NE,52,13.0,16.0,65,0.00,,,0.00,,2013-04-26 14:21:00,
2013-04-26 10:32:00,79.0,66.0,30.17,NNE,31,11.0,17.0,65,0.00,,,0.00,,2013-04-26 14:32:00,
2013-04-26 10:42:00,79.0,66.0,30.17,NNE,31,11.0,17.0,65,0.00,,,0.00,,2013-04-26 14:42:00,
2013-04-26 10:52:00,79.0,65.0,30.17,NE,35,9.0,17.0,62,0.00,,,0.00,,2013-04-26 14:52:00,
2013-04-26 11:01:00,79.0,64.0,30.17,NE,45,10.0,17.0,61,0.00,,,0.00,,2013-04-26 15:01:00,
2013-04-26 11:12:00,79.0,64.0,30.17,NE,45,10.0,17.0,61,0.00,,,0.00,,2013-04-26 15:12:00,
2013-04-26 11:21:00,80.0,65.0,30.17,NE,46,9.0,16.0,61,0.00,,,0.00,,2013-04-26 15:21:00,
2013-04-26 11:33:00,81.0,66.0,30.17,ENE,67,12.0,18.0,60,0.00,,,0.00,,2013-04-26 15:33:00,
2013-04-26 11:43:00,81.0,66.0,30.17,ENE,67,12.0,18.0,60,0.00,,,0.00,,2013-04-26 15:43:00,
2013-04-26 11:53:00,80.0,65.0,30.17,NE,48,14.0,19.0,61,0.00,,,0.00,,2013-04-26 15:53:00,
2013-04-26 12:03:00,80.0,65.0,30.20,ENE,69,14.0,19.0,61,0.00,,,0.00,,2013-04-26 16:03:00,
2013-04-26 12:12:00,80.0,65.0,30.20,ENE,69,14.0,19.0,61,0.00,,,0.00,,2013-04-26 16:12:00,
2013-04-26 12:23:00,81.0,66.0,30.20,NE,48,15.0,18.0,60,0.00,,,0.00,,2013-04-26 16:23:00,
2013-04-26 12:33:00,81.0,66.0,30.19,NE,56,14.0,20.0,60,0.00,,,0.00,,2013-04-26 16:33:00,
2013-04-26 12:42:00,81.0,66.0,30.19,NE,56,14.0,20.0,60,0.00,,,0.00,,2013-04-26 16:42:00,
2013-04-26 12:53:00,81.0,65.0,30.19,NE,46,14.0,19.0,59,0.00,,,0.00,,2013-04-26 16:53:00,
2013-04-26 13:02:00,81.0,65.0,30.18,NE,49,14.0,19.0,59,0.00,,,0.00,,2013-04-26 17:02:00,
2013-04-26 13:12:00,81.0,65.0,30.18,NE,49,14.0,19.0,59,0.00,,,0.00,,2013-04-26 17:12:00,
2013-04-26 13:22:00,81.0,66.0,30.18,ENE,61,15.0,21.0,60,0.00,,,0.00,,2013-04-26 17:22:00,
2013-04-26 13:32:00,81.0,66.0,30.18,NE,54,17.0,20.0,60,0.00,,,0.00,,2013-04-26 17:32:00,
2013-04-26 13:42:00,81.0,66.0,30.18,NE,54,17.0,20.0,60,0.00,,,0.00,,2013-04-26 17:42:00,
2013-04-26 13:52:00,81.0,66.0,30.18,NE,52,15.0,20.0,60,0.00,,,0.00,,2013-04-26 17:52:00,
2013-04-26 14:02:00,81.0,66.0,30.18,NE,52,18.0,21.0,61,0.00,,,0.00,,2013-04-26 18:02:00,
2013-04-26 14:12:00,81.0,66.0,30.18,NE,45,16.0,23.0,60,0.00,,,0.00,,2013-04-26 18:12:00,
2013-04-26 14:22:00,81.0,66.0,30.18,NE,45,16.0,23.0,60,0.00,,,0.00,,2013-04-26 18:22:00,
2013-04-26 14:33:00,81.0,66.0,30.17,NE,44,17.0,23.0,60,0.00,,,0.00,,2013-04-26 18:33:00,
2013-04-26 14:42:00,81.0,66.0,30.17,NE,44,17.0,23.0,60,0.00,,,0.00,,2013-04-26 18:42:00,
2013-04-26 14:52:00,81.0,64.0,30.16,NE,40,17.0,22.0,57,0.00,,,0.00,,2013-04-26 18:52:00,
2013-04-26 15:01:00,81.0,65.0,30.16,ENE,64,15.0,22.0,59,0.00,,,0.00,,2013-04-26 19:01:00,
2013-04-26 15:12:00,81.0,65.0,30.16,ENE,64,15.0,22.0,59,0.00,,,0.00,,2013-04-26 19:12:00,
2013-04-26 15:22:00,81.0,66.0,30.16,ENE,65,17.0,21.0,61,0.00,,,0.00,,2013-04-26 19:22:00,
2013-04-26 15:32:00,81.0,66.0,30.15,ENE,61,18.0,22.0,61,0.00,,,0.00,,2013-04-26 19:32:00,
2013-04-26 15:42:00,81.0,66.0,30.15,ENE,61,18.0,22.0,61,0.00,,,0.00,,2013-04-26 19:42:00,
2013-04-26 15:52:00,81.0,65.0,30.15,ENE,57,17.0,22.0,59,0.00,,,0.00,,2013-04-26 19:52:00,
2013-04-26 16:02:00,81.0,66.0,30.15,ENE,63,17.0,23.0,61,0.00,,,0.00,,2013-04-26 20:02:00,
2013-04-26 16:11:00,81.0,66.0,30.13,NE,47,17.0,24.0,61,0.00,,,0.00,,2013-04-26 20:11:00,
2013-04-26 16:22:00,81.0,66.0,30.13,NE,47,17.0,24.0,61,0.00,,,0.00,,2013-04-26 20:22:00,
2013-04-26 16:32:00,81.0,66.0,30.13,NE,46,16.0,23.0,61,0.00,,,0.00,,2013-04-26 20:32:00,
2013-04-26 16:42:00,81.0,66.0,30.13,NE,46,16.0,23.0,61,0.00,,,0.00,,2013-04-26 20:42:00,
2013-04-26 16:52:00,81.0,65.0,31.60,NE,52,16.0,22.0,59,0.00,,,0.00,,2013-04-26 20:52:00,
2013-04-26 17:02:00,81.0,66.0,26.41,NE,46,20.0,24.0,60,0.00,,,0.00,,2013-04-26 21:02:00,
2013-04-26 17:11:00,81.0,66.0,26.41,NE,46,20.0,24.0,60,0.00,,,0.00,,2013-04-26 21:11:00,
2013-04-26 17:22:00,81.0,66.0,31.09,ENE,59,16.0,22.0,60,0.00,,,0.00,,2013-04-26 21:22:00,
2013-04-26 17:33:00,81.0,67.0,31.34,NE,50,18.0,24.0,63,0.00,,,0.00,,2013-04-26 21:33:00,
2013-04-26 17:42:00,81.0,67.0,31.34,NE,50,18.0,24.0,63,0.00,,,0.00,,2013-04-26 21:42:00,
2013-04-26 17:53:00,80.0,66.0,31.34,ENE,69,20.0,25.0,63,0.00,,,0.00,,2013-04-26 21:53:00,
2013-04-26 18:03:00,80.0,66.0,31.35,NE,34,20.0,27.0,62,0.00,,,0.00,,2013-04-26 22:03:00,
2013-04-26 18:12:00,80.0,66.0,31.35,NE,34,20.0,27.0,62,0.00,,,0.00,,2013-04-26 22:12:00,
2013-04-26 18:23:00,80.0,67.0,31.34,ENE,57,18.0,24.0,64,0.00,,,0.00,,2013-04-26 22:23:00,
2013-04-26 18:33:00,79.0,66.0,31.34,NE,46,21.0,25.0,65,0.00,,,0.00,,2013-04-26 22:33:00,
2013-04-26 18:42:00,79.0,66.0,31.34,NE,46,21.0,25.0,65,0.00,,,0.00,,2013-04-26 22:42:00,
2013-04-26 18:52:00,79.0,65.0,26.44,NE,51,17.0,29.0,63,0.00,,,0.00,,2013-04-26 22:52:00,
2013-04-26 19:02:00,78.0,66.0,26.42,ENE,61,18.0,27.0,66,0.00,,,0.00,,2013-04-26 23:02:00,
2013-04-26 19:12:00,78.0,66.0,26.42,ENE,61,18.0,27.0,66,0.00,,,0.00,,2013-04-26 23:12:00,
2013-04-26 19:21:00,77.0,65.0,26.42,NE,36,20.0,26.0,66,0.00,,,0.00,,2013-04-26 23:21:00,
2013-04-26 19:32:00,77.0,65.0,30.15,NE,50,17.0,26.0,67,0.00,,,0.00,,2013-04-26 23:32:00,
2013-04-26 19:42:00,77.0,65.0,30.15,NE,50,17.0,26.0,67,0.00,,,0.00,,2013-04-26 23:42:00,
2013-04-26 19:52:00,77.0,66.0,30.15,NE,50,20.0,24.0,68,0.00,,,0.00,,2013-04-26 23:52:00,
2013-04-26 20:01:00,76.0,65.0,30.14,NE,44,19.0,23.0,68,0.00,,,0.00,,2013-04-27 00:01:00,
2013-04-26 20:11:00,76.0,65.0,30.14,NE,44,19.0,23.0,68,0.00,,,0.00,,2013-04-27 00:11:00,
2013-04-26 20:21:00,76.0,65.0,30.14,NE,53,20.0,26.0,68,0.00,,,0.00,,2013-04-27 00:21:00,
2013-04-26 20:32:00,76.0,65.0,26.41,NNE,31,17.0,24.0,69,0.00,,,0.00,,2013-04-27 00:32:00,
2013-04-26 20:42:00,76.0,65.0,26.41,NNE,31,17.0,24.0,69,0.00,,,0.00,,2013-04-27 00:42:00,
2013-04-26 20:52:00,76.0,65.0,26.41,NE,45,17.0,26.0,68,0.00,,,0.00,,2013-04-27 00:52:00,
2013-04-26 21:01:00,76.0,65.0,26.41,NE,34,18.0,27.0,69,0.00,,,0.00,,2013-04-27 01:01:00,
2013-04-26 21:12:00,76.0,65.0,26.41,NE,34,18.0,27.0,69,0.00,,,0.00,,2013-04-27 01:12:00,
2013-04-26 21:21:00,76.0,65.0,26.41,NNE,17,21.0,29.0,69,0.00,,,0.00,,2013-04-27 01:21:00,
2013-04-26 21:32:00,76.0,65.0,26.41,NE,43,19.0,27.0,69,0.00,,,0.00,,2013-04-27 01:32:00,
2013-04-26 21:42:00,76.0,65.0,26.41,NE,43,19.0,27.0,69,0.00,,,0.00,,2013-04-27 01:42:00,
2013-04-26 21:52:00,76.0,65.0,26.41,NE,41,20.0,25.0,69,0.00,,,0.00,,2013-04-27 01:52:00,
2013-04-26 22:02:00,76.0,65.0,26.41,NE,54,20.0,26.0,68,0.00,,,0.00,,2013-04-27 02:02:00,
2013-04-26 22:11:00,76.0,65.0,26.41,NE,54,20.0,26.0,68,0.00,,,0.00,,2013-04-27 02:11:00,
2013-04-26 22:22:00,76.0,65.0,26.41,NNE,33,17.0,26.0,69,0.00,,,0.00,,2013-04-27 02:22:00,
2013-04-26 22:32:00,76.0,65.0,26.41,NNE,19,20.0,27.0,69,0.00,,,0.00,,2013-04-27 02:32:00,
2013-04-26 22:42:00,76.0,65.0,26.41,NNE,19,20.0,27.0,69,0.00,,,0.00,,2013-04-27 02:42:00,
2013-04-26 22:52:00,76.0,66.0,26.41,ENE,61,16.0,23.0,71,0.00,,,0.00,,2013-04-27 02:52:00,
2013-04-26 23:02:00,76.0,65.0,26.41,NE,52,21.0,28.0,69,0.00,,,0.00,,2013-04-27 03:02:00,
2013-04-26 23:11:00,76.0,65.0,26.41,NE,52,21.0,28.0,69,0.00,,,0.00,,2013-04-27 03:11:00,
2013-04-26 23:22:00,76.0,65.0,26.41,NE,46,18.0,24.0,70,0.00,,,0.00,,2013-04-27 03:22:00,
2013-04-26 23:33:00,76.0,65.0,26.41,NE,42,19.0,25.0,70,0.00,,,0.00,,2013-04-27 03:33:00,
2013-04-26 23:43:00,76.0,65.0,26.41,NE,42,19.0,25.0,70,0.00,,,0.00,,2013-04-27 03:43:00,
2013-04-26 23:53:00,76.0,65.0,26.41,NE,49,19.0,25.0,69,0.00,,,0.00,,2013-04-27 03:53:00,